Retour au catalogue

STARLINK-32099

ActifCommunicationsVLEO
NORAD 59697·PAYLOAD·🇺🇸 United States

Lancé May 8, 2024 depuis Cape Canaveral Space Force Station

Loading…

Prochains Passages (prochaines 24 heures)

TLE

FraisSource: CelesTrak SupGP

Époque: Sep 14, 2026, 22:11 UTC

1 59697C 24086R   26257.92479167  .00054158  00000+0  19618-2 0  2579
2 59697  43.0001  70.9847 0001461 271.3058 163.3470 15.27547665    12

Suivez STARLINK-32099 en temps réel avec AllMySat

Download on the App Store